Location: Arbon
(43.0005°N, 0.7472°E)
Time: 17:06:07
(UTC+00:00)

SeaSat 1 - Pass Details

Date: 07 August 2020
Orbit: 744 x 748 km, 108.0° (Epoch: 22 September)

Event Time Altitude Azimuth Distance (km) Brightness Sun altitude
Rises 03:16:09 0° 31° (NNE) 3,199 7.2 -16.0°
Reaches altitude 10° 03:18:29 10° 36° (NE) 2,272 6.2 -15.7°
Maximum altitude 03:23:18 52° 113° (ESE) 927 3.1 -15.0°
Enters shadow 03:27:41 12° 188° (S) 2,101 4.3 -14.4°
